User: anonymous   Login
Location: Battery Park City
(40.7115°N, 74.0163°W)
Time: 13:54:48
(UTC+00:00)
Language:

SL-8 R/B - Orbit

View from above orbital plane
View from above orbital plane
View from above satellite
View from above satellite

Ground track
Ground track

The orbit data is extracted from the following two-line orbital elements,

1 33066U 08031G   20052.88175941 -.00000126 +00000-0 +11754-4 0  9994
2 33066 048.4427 207.3101 0007958 295.9146 064.0945 14.69688462626802
Epoch (UTC): 21 February 2020 21:09:44
Eccentricity: 0.0007958
inclination: 48.4427°
perigee height: 656 km
apogee height: 667 km
right ascension of ascending node: 207.3101°
argument of perigee: 295.9146°
revolutions per day: 14.69688462
mean anomaly at epoch: 64.0945°
orbit number at epoch: 62680

The dashed part of the orbit path shows where the satellite is in the earth's shadow,  

DLR